Location: Unspecified
(0.0000°N, 0.0000°E)
Time: 10:35:51
(UTC+02:00)

Amateur Radio Satellites - All Passes

Search period start: 02 August 2014 10:05
Search period end: 03 August 2014 10:05
Location: Unspecified, 0.0000°N, 0.0000°E

Satellite Date Start Highest point End Downlink Frequencies (MHz)
Time Altitude Azimuth
HO-68 02 Aug 10:31:32 10:38:34 64° 105° (ESE) 10:45:38 435.675 MHz FM
PANSAT 02 Aug 10:32:18 10:35:25 23° 29° (NNE) 10:38:32 not established
SO-50 02 Aug 10:36:23 10:39:56 24° 112° (ESE) 10:43:28 436.795 FM
UKube-1 02 Aug 10:42:57 10:47:07 48° 102° (ESE) 10:51:18 145.840 MHz, 145.915 MHz
PCSat 02 Aug 10:57:04 11:01:14 23° 70° (ENE) 11:05:24 145.825 MHz
Oscar 11 02 Aug 11:23:04 11:27:25 81° 102° (ESE) 11:31:47 145.825 FM, Beacon 2401.500 USB
FUNcube-1 02 Aug 11:56:48 12:01:04 66° 102° (ESE) 12:05:29 145.950 - 145.970 MHz USB
Sapphire 02 Aug 12:06:09 12:11:28 62° 251° (WSW) 12:16:48 437.095 MHz 1200 baud AX-25 AFSK
RS-15 02 Aug 12:07:35 12:18:47 51° 111° (ESE) 12:29:25 29.354 - 29.394 USB, Beacon 29.352 USB
PANSAT 02 Aug 12:11:50 12:15:33 46° 210° (SSW) 12:19:16 not established
UOSAT-12 02 Aug 12:13:21 12:15:48 15° 112° (ESE) 12:18:15 437.025 FM, 437.400 FM
SO-50 02 Aug 12:17:41 12:20:13 15° 292° (WNW) 12:22:45 436.795 FM
HO-68 02 Aug 12:23:10 12:25:54 13° 285° (WNW) 12:28:39 435.675 MHz FM
PCSat 02 Aug 12:40:09 12:44:22 23° 250° (WSW) 12:48:37 145.825 MHz
UOSAT-12 02 Aug 13:51:58 13:55:40 25° 292° (WNW) 13:59:24 437.025 FM, 437.400 FM
RS-15 02 Aug 14:21:34 14:30:39 28° 291° (WNW) 14:39:32 29.354 - 29.394 USB, Beacon 29.352 USB
Oscar 19 02 Aug 14:28:38 14:32:31 22° 77° (ENE) 14:36:23 437.125 CW, 437.150 USB
Oscar 16 02 Aug 14:56:42 15:01:42 53° 78° (ENE) 15:06:40 437.025 USB, Beacon 2401.1428
ITAMSAT 1 02 Aug 15:27:18 15:32:15 43° 77° (ENE) 15:37:09 435.822 SSB
JAS-1B 02 Aug 15:36:27 15:43:41 39° 74° (ENE) 15:51:57 435.800 - 435.900 CW/SSB
Uribyol 2 02 Aug 15:45:15 15:50:29 79° 77° (ENE) 15:55:40 436.500 FM
AO-Echo 02 Aug 15:45:45 15:50:59 80° 78° (ENE) 15:56:17 ?
AO-27 02 Aug 15:47:27 15:52:42 80° 77° (ENE) 15:57:55 436.795 MHz FM
Oscar 19 02 Aug 16:07:43 16:11:35 22° 257° (WSW) 16:15:27 437.125 CW, 437.150 USB
TMSAT-1 02 Aug 16:09:31 16:14:06 30° 78° (ENE) 16:18:40 436.925 FM
Gurwin Techsat 1B 02 Aug 16:36:12 16:41:32 85° 258° (WSW) 16:46:50 435.225 FM
KITSAT 1 02 Aug 16:54:25 17:02:08 51° 70° (ENE) 17:09:50 435.175 FM
Oscar 10/S400 02 Aug 17:05:51 18:01:49 74° 154° (SSE) 18:20:43 145.825 - 145.975 CW/USB, Beacon 145.810 USB
ITAMSAT 1 02 Aug 17:09:55 17:11:26 11° 257° (WSW) 17:12:57 435.822 SSB
AO-7 02 Aug 17:25:59 17:33:47 44° 74° (ENE) 17:41:33 29.400 - 29.500 MHz
JAS-1B 02 Aug 17:27:28 17:33:54 29° 259° (W) 17:41:16 435.800 - 435.900 CW/SSB
OPAL 02 Aug 17:38:57 17:44:05 72° 104° (ESE) 17:49:18 ?
Uosat F 02 Aug 17:47:19 17:52:20 69° 77° (ENE) 17:57:20 435.120 FM
TMSAT-1 02 Aug 17:50:20 17:53:44 17° 257° (WSW) 17:57:08 436.925 FM
Hamsat 02 Aug 18:42:58 18:44:17 11° 78° (ENE) 18:45:35 145.90 MHz
Saudisat 1A 02 Aug 18:43:14 18:47:15 37° 248° (WSW) 18:51:18 436.775 MHz
KITSAT 1 02 Aug 18:51:47 18:57:13 20° 249° (WSW) 19:02:42 435.175 FM
JAS-2 02 Aug 19:14:58 19:22:12 41° 77° (ENE) 19:29:18 435.800 - 435.900 CW/SSB, 435.910 FM
AO-7 02 Aug 19:19:45 19:26:11 25° 253° (WSW) 19:32:38 29.400 - 29.500 MHz
ISS 02 Aug 20:04:11 20:07:16 37° 125° (SE) 20:10:20 145.800 FM
STRAND 1 02 Aug 20:10:12 20:15:09 54° 103° (ESE) 20:20:07 ?
Hamsat 02 Aug 20:16:30 20:20:00 26° 258° (WSW) 20:23:28 145.90 MHz
SO-67 02 Aug 20:33:30 20:36:49 43° 79° (E) 20:40:06 435.3500 MHz FM
JAS-2 02 Aug 21:00:35 21:06:47 27° 257° (WSW) 21:13:01 435.800 - 435.900 CW/SSB, 435.910 FM
MaSat-1 02 Aug 21:01:01 21:03:24 19° 291° (WNW) 21:06:04 437.345 MHz
PANSAT 02 Aug 22:19:46 22:22:57 24° 151° (SSE) 22:26:08 not established
HO-68 02 Aug 22:23:16 22:30:15 54° 75° (ENE) 22:37:11 435.675 MHz FM
SO-50 02 Aug 22:48:36 22:53:15 48° 68° (ENE) 22:57:55 436.795 FM
UKube-1 02 Aug 22:52:40 22:57:01 69° 78° (ENE) 23:01:21 145.840 MHz, 145.915 MHz
Sapphire 02 Aug 23:00:14 23:04:44 27° 110° (ESE) 23:09:13 437.095 MHz 1200 baud AX-25 AFSK
PCSat 02 Aug 23:32:12 23:37:34 72° 109° (ESE) 23:42:56 145.825 MHz
Oscar 11 02 Aug 23:32:26 23:36:44 74° 258° (WSW) 23:41:01 145.825 FM, Beacon 2401.500 USB
RS-15 02 Aug 23:49:05 23:59:37 43° 70° (ENE) 00:10:33 29.354 - 29.394 USB, Beacon 29.352 USB
PANSAT 02 Aug 23:59:24 00:03:05 44° 330° (NNW) 00:06:47 not established
FUNcube-1 03 Aug 00:07:51 00:12:19 84° 259° (WSW) 00:16:38 145.950 - 145.970 MHz USB
HO-68 03 Aug 00:13:35 00:17:35 16° 254° (WSW) 00:21:35 435.675 MHz FM
UOSAT-12 03 Aug 00:22:25 00:26:15 26° 68° (ENE) 00:30:01 437.025 FM, 437.400 FM
Sapphire 03 Aug 00:44:04 00:47:53 20° 290° (WNW) 00:51:42 437.095 MHz 1200 baud AX-25 AFSK
AO-40 03 Aug 00:57:50 04:49:02 40° 91° (E) 06:16:32 Beacon 2401.320
RS-15 03 Aug 02:01:33 02:11:37 35° 248° (WSW) 02:22:09 29.354 - 29.394 USB, Beacon 29.352 USB
UOSAT-12 03 Aug 02:03:29 02:06:07 15° 248° (WSW) 02:08:44 437.025 FM, 437.400 FM
Uribyol 2 03 Aug 02:44:01 02:46:09 13° 103° (ESE) 02:48:17 436.500 FM
AO-27 03 Aug 02:46:27 02:48:40 13° 103° (ESE) 02:50:54 436.795 MHz FM
Oscar 19 03 Aug 03:01:10 03:06:15 58° 102° (ESE) 03:11:21 437.125 CW, 437.150 USB
Oscar 16 03 Aug 03:30:27 03:35:31 58° 282° (WNW) 03:40:38 437.025 USB, Beacon 2401.1428
Gurwin Techsat 1B 03 Aug 03:36:51 03:40:20 18° 103° (ESE) 03:43:49 435.225 FM
JAS-1B 03 Aug 03:49:19 03:56:17 43° 101° (E) 04:02:13 435.800 - 435.900 CW/SSB
ITAMSAT 1 03 Aug 04:02:09 04:07:16 70° 283° (WNW) 04:12:25 435.822 SSB
AO-Echo 03 Aug 04:15:59 04:20:27 41° 282° (WNW) 04:24:52 ?
Uribyol 2 03 Aug 04:20:35 04:25:20 38° 283° (WNW) 04:30:07 436.500 FM
AO-27 03 Aug 04:23:09 04:27:53 38° 283° (WNW) 04:32:39 436.795 MHz FM
TMSAT-1 03 Aug 04:46:55 04:52:12 86° 102° (ESE) 04:57:31 436.925 FM
KITSAT 1 03 Aug 05:02:10 05:10:11 66° 110° (ESE) 05:18:10 435.175 FM
Saudisat 1A 03 Aug 05:11:38 05:14:08 15° 113° (ESE) 05:16:38 436.775 MHz
Gurwin Techsat 1B 03 Aug 05:15:31 05:20:01 29° 283° (WNW) 05:24:33 435.225 FM
JAS-1B 03 Aug 05:41:36 05:46:18 18° 288° (WNW) 05:50:36 435.800 - 435.900 CW/SSB
AO-7 03 Aug 05:51:54 06:00:08 71° 106° (ESE) 06:08:21 29.400 - 29.500 MHz
OPAL 03 Aug 06:11:17 06:16:01 45° 256° (WSW) 06:20:43 ?
Uosat F 03 Aug 06:17:14 06:22:02 50° 283° (WNW) 06:26:52 435.120 FM
Hamsat 03 Aug 06:48:56 06:51:32 16° 102° (ESE) 06:54:09 145.90 MHz
Saudisat 1A 03 Aug 06:49:54 06:53:28 24° 292° (WNW) 06:57:01 436.775 MHz
JAS-2 03 Aug 06:52:11 06:54:29 13° 104° (ESE) 06:56:48 435.800 - 435.900 CW/SSB, 435.910 FM
KITSAT 1 03 Aug 07:01:17 07:05:19 15° 291° (WNW) 07:09:22 435.175 FM
MaSat-1 03 Aug 07:18:23 07:20:50 14° 69° (ENE) 07:23:08 437.345 MHz
ISS 03 Aug 07:40:03 07:42:50 24° 54° (NE) 07:45:36 145.800 FM
AO-7 03 Aug 07:48:46 07:52:28 14° 287° (WNW) 07:56:11 29.400 - 29.500 MHz
SO-67 03 Aug 08:18:49 08:21:38 23° 101° (E) 08:24:27 435.3500 MHz FM
Hamsat 03 Aug 08:23:54 08:27:14 22° 281° (WNW) 08:30:34 145.90 MHz
JAS-2 03 Aug 08:34:44 08:39:20 33° 282° (WNW) 08:43:59 435.800 - 435.900 CW/SSB, 435.910 FM
STRAND 1 03 Aug 08:42:56 08:48:00 59° 257° (WSW) 08:53:03 ?
MaSat-1 03 Aug 08:54:26 08:57:54 22° 256° (WSW) 09:01:00 437.345 MHz
ISS 03 Aug 09:18:39 09:19:21 11° 234° (SW) 09:20:03 145.800 FM
